Location: Basses Si�yes
(44.0835°N, 6.2037°E)
Time: 15:53:49
(UTC+00:00)

Meteor 1-14 Rocket - Pass Details

Date: 27 February 2020
Orbit: 834 x 918 km, 81.3° (Epoch: 29 March)

Event Time Altitude Azimuth Distance (km) Brightness Sun altitude
Rises 18:48:56 0° 189° (S) 3,368 7.4 -16.7°
Reaches altitude 10° 18:51:19 10° 190° (S) 2,438 6.7 -17.1°
Maximum altitude 18:56:50 86° 280° (W) 845 4.2 -18.1°
Drops below altitude 10° 19:02:27 10° 10° (N) 2,474 6.6 -19.1°
Sets 19:04:53 0° 11° (N) 3,423 7.3 -19.6°
